SAS345 EDDP-EDDH

Flight info

Callsign SAS345
Flight time 0h 38m
Altitude 28000
Route PENEM1S/26L PENEM Y233 ODLUN Z207 MAG M736 SOGMA M748 ERNUD M726 BKD L619 BUMIL M748 RARUP RARUP3P
Aircraft B736/M-SDE2E3FGHIRWXY/LB1

Departure

Time 2026-04-23 17:41
Airport Leipzig/Halle Airport (EDDP)

Arrival

Time 2026-04-23 18:19
Airport Hamburg Helmut Schmidt Airport (EDDH)
Time Latitude Longitude Altitude Speed Heading
2026-04-23 17:12 51.41938 12.21773 435 ft 0 kts 15°
2026-04-23 17:28 51.41923 12.21765 429 ft 4 kts 15°
2026-04-23 17:29 51.41897 12.21753 435 ft 4 kts 23°
2026-04-23 17:29 51.41874 12.21732 435 ft 4 kts 47°
2026-04-23 17:29 51.41865 12.21686 436 ft 0 kts 106°
2026-04-23 17:32 51.41860 12.21715 436 ft 9 kts 106°
2026-04-23 17:32 51.41833 12.21869 430 ft 17 kts 105°
2026-04-23 17:32 51.41804 12.22047 435 ft 16 kts 105°
2026-04-23 17:32 51.41775 12.22223 432 ft 16 kts 105°
2026-04-23 17:33 51.41747 12.22389 428 ft 15 kts 111°
2026-04-23 17:33 51.41718 12.22546 442 ft 15 kts 105°
2026-04-23 17:33 51.41692 12.22699 448 ft 14 kts 105°
2026-04-23 17:33 51.41667 12.22846 452 ft 13 kts 105°
2026-04-23 17:34 51.41638 12.23012 458 ft 18 kts 105°
2026-04-23 17:34 51.41602 12.23222 464 ft 22 kts 103°
2026-04-23 17:34 51.41624 12.23812 471 ft 31 kts 85°
2026-04-23 17:35 51.41642 12.24178 478 ft 33 kts 86°
2026-04-23 17:35 51.41721 12.24796 478 ft 24 kts 20°
2026-04-23 17:35 51.41877 12.24855 484 ft 23 kts 13°
2026-04-23 17:36 51.42036 12.24917 490 ft 25 kts 14°
2026-04-23 17:36 51.42207 12.24983 488 ft 26 kts 13°
2026-04-23 17:36 51.42388 12.25046 476 ft 27 kts 11°
2026-04-23 17:36 51.42570 12.25124 468 ft 26 kts 13°
2026-04-23 17:37 51.42741 12.25190 458 ft 24 kts 12°
2026-04-23 17:37 51.42901 12.25247 449 ft 23 kts 14°
2026-04-23 17:37 51.43005 12.25652 448 ft 22 kts 85°
2026-04-23 17:38 51.43017 12.25888 452 ft 21 kts 85°
2026-04-23 17:38 51.43030 12.26117 451 ft 20 kts 84°
2026-04-23 17:38 51.43039 12.26339 453 ft 20 kts 88°
2026-04-23 17:38 51.43045 12.26555 454 ft 19 kts 85°
2026-04-23 17:39 51.43079 12.26746 454 ft 18 kts 26°
2026-04-23 17:39 51.43204 12.26738 457 ft 18 kts 354°
2026-04-23 17:39 51.43330 12.26716 454 ft 18 kts 353°
2026-04-23 17:39 51.43361 12.26660 453 ft 5 kts 272°
2026-04-23 17:40 51.43357 12.26575 452 ft 19 kts 265°
2026-04-23 17:40 51.43332 12.26004 449 ft 90 kts 265°
2026-04-23 17:40 51.43251 12.24619 450 ft 156 kts 264°
2026-04-23 17:40 51.43131 12.22745 994 ft 167 kts 266°
2026-04-23 17:41 51.43125 12.20988 2109 ft 149 kts 283°
2026-04-23 17:41 51.43510 12.17337 3167 ft 195 kts 282°
2026-04-23 17:41 51.43741 12.15030 3475 ft 221 kts 282°
2026-04-23 17:42 51.45019 12.10671 4884 ft 227 kts 332°
2026-04-23 17:42 51.46551 12.10046 5680 ft 231 kts 348°
2026-04-23 17:42 51.48134 12.09475 6600 ft 233 kts 342°
2026-04-23 17:43 51.49654 12.08580 7574 ft 234 kts 335°
2026-04-23 17:43 51.51205 12.07764 8429 ft 240 kts 354°
2026-04-23 17:43 51.52876 12.07970 9341 ft 243 kts
2026-04-23 17:43 51.54583 12.08145 10009 ft 255 kts 355°
2026-04-23 17:44 51.56412 12.08121 10512 ft 273 kts
2026-04-23 17:44 51.58410 12.08256 10721 ft 301 kts
2026-04-23 17:44 51.62790 12.08519 11977 ft 322 kts
2026-04-23 17:45 51.65041 12.08607 12861 ft 324 kts
2026-04-23 17:45 51.69579 12.08405 14534 ft 333 kts 346°
2026-04-23 17:45 51.71722 12.06907 15353 ft 340 kts 330°
2026-04-23 17:46 51.75181 12.01470 16922 ft 355 kts 315°
2026-04-23 17:46 51.76822 11.98458 17640 ft 360 kts 315°
2026-04-23 17:46 51.78494 11.95409 18390 ft 364 kts 316°
2026-04-23 17:47 51.80175 11.92391 19107 ft 368 kts 316°
2026-04-23 17:47 51.81910 11.89302 19784 ft 374 kts 316°
2026-04-23 17:47 51.85960 11.84110 21089 ft 374 kts 338°
2026-04-23 17:48 51.88392 11.82647 21731 ft 373 kts 349°
2026-04-23 17:48 51.90946 11.81870 22375 ft 375 kts 353°
2026-04-23 17:48 51.93523 11.81165 23143 ft 375 kts 353°
2026-04-23 17:48 51.95218 11.80682 23714 ft 373 kts 353°
2026-04-23 17:49 51.97767 11.79939 24545 ft 371 kts 354°
2026-04-23 17:49 52.00323 11.79573 25317 ft 367 kts
2026-04-23 17:49 52.02851 11.79869 26143 ft 362 kts
2026-04-23 17:49 52.05338 11.80339 26996 ft 358 kts
2026-04-23 17:50 52.07809 11.80799 27739 ft 358 kts
2026-04-23 17:50 52.12758 11.81664 28204 ft 363 kts
2026-04-23 17:50 52.15319 11.82106 28223 ft 376 kts
2026-04-23 17:51 52.17965 11.82562 28228 ft 388 kts
2026-04-23 17:51 52.20688 11.83033 28229 ft 399 kts
2026-04-23 17:51 52.26344 11.84036 28224 ft 418 kts
2026-04-23 17:52 52.29266 11.84561 28222 ft 426 kts
2026-04-23 17:52 52.38225 11.86150 28203 ft 431 kts
2026-04-23 17:53 52.47164 11.87675 28207 ft 430 kts
2026-04-23 17:54 52.53108 11.88699 28208 ft 430 kts
2026-04-23 17:54 52.61883 11.89418 28201 ft 435 kts 352°
2026-04-23 17:55 52.67524 11.85695 28193 ft 446 kts 329°
2026-04-23 17:55 52.70004 11.82614 28209 ft 448 kts 326°
2026-04-23 17:56 52.74901 11.76227 28199 ft 449 kts 325°
2026-04-23 17:56 52.82339 11.66694 28201 ft 449 kts 326°
2026-04-23 17:57 52.87261 11.60441 28202 ft 449 kts 326°
2026-04-23 17:57 52.92460 11.54866 28190 ft 442 kts 342°
2026-04-23 17:58 52.95417 11.53605 28200 ft 436 kts 353°
2026-04-23 17:58 52.98367 11.53386 28179 ft 413 kts
2026-04-23 17:58 53.01164 11.53648 28157 ft 397 kts 355°
2026-04-23 17:58 53.03822 11.52446 27360 ft 404 kts 334°
2026-04-23 17:59 53.05998 11.49498 26718 ft 410 kts 311°
2026-04-23 17:59 53.07314 11.45296 26186 ft 415 kts 289°
2026-04-23 17:59 53.07980 11.40645 25654 ft 408 kts 294°
2026-04-23 17:59 53.09237 11.36497 25123 ft 398 kts 304°
2026-04-23 18:00 53.10655 11.32576 24570 ft 393 kts 307°
2026-04-23 18:00 53.12325 11.29046 24031 ft 386 kts 316°
2026-04-23 18:00 53.14243 11.25967 23476 ft 379 kts 324°
2026-04-23 18:00 53.16358 11.23406 22945 ft 374 kts 328°
2026-04-23 18:01 53.18500 11.20959 22415 ft 371 kts 328°
2026-04-23 18:01 53.20625 11.18554 21890 ft 368 kts 328°
2026-04-23 18:01 53.22706 11.16191 21385 ft 364 kts 328°
2026-04-23 18:01 53.24789 11.13811 20877 ft 361 kts 328°
2026-04-23 18:02 53.26850 11.11441 20327 ft 360 kts 328°
2026-04-23 18:02 53.28911 11.09062 19698 ft 360 kts 328°
2026-04-23 18:02 53.30968 11.06680 19072 ft 359 kts 328°
2026-04-23 18:02 53.33018 11.04300 18455 ft 359 kts 328°
2026-04-23 18:03 53.35063 11.01921 17833 ft 357 kts 327°
2026-04-23 18:03 53.37104 10.99543 17207 ft 356 kts 327°
2026-04-23 18:03 53.39131 10.97178 16586 ft 354 kts 327°
2026-04-23 18:03 53.41152 10.94819 15961 ft 353 kts 327°
2026-04-23 18:04 53.43155 10.92476 15337 ft 351 kts 326°
2026-04-23 18:04 53.45150 10.90140 14712 ft 349 kts 326°
2026-04-23 18:04 53.47135 10.87814 14082 ft 346 kts 326°
2026-04-23 18:04 53.49104 10.85505 13450 ft 344 kts 326°
2026-04-23 18:05 53.51060 10.83208 12840 ft 342 kts 326°
2026-04-23 18:05 53.53002 10.80923 12215 ft 339 kts 326°
2026-04-23 18:05 53.54931 10.78652 11609 ft 337 kts 326°
2026-04-23 18:05 53.56819 10.76426 11356 ft 324 kts 326°
2026-04-23 18:06 53.58623 10.74295 11240 ft 309 kts 326°
2026-04-23 18:06 53.60127 10.71817 11201 ft 308 kts 306°
2026-04-23 18:06 53.60893 10.68520 11193 ft 301 kts 282°
2026-04-23 18:06 53.60840 10.65048 11123 ft 294 kts 266°
2026-04-23 18:07 53.60514 10.61714 10972 ft 285 kts 265°
2026-04-23 18:07 53.60156 10.58450 10633 ft 283 kts 264°
2026-04-23 18:07 53.59795 10.55202 10276 ft 282 kts 264°
2026-04-23 18:07 53.59536 10.51971 9942 ft 274 kts 277°
2026-04-23 18:08 53.59768 10.49920 9712 ft 266 kts 295°
2026-04-23 18:08 53.61120 10.46563 9273 ft 258 kts 313°
2026-04-23 18:08 53.62307 10.44303 8925 ft 257 kts 314°
2026-04-23 18:08 53.63502 10.42074 8597 ft 256 kts 314°
2026-04-23 18:09 53.64693 10.39870 8269 ft 254 kts 314°
2026-04-23 18:09 53.66088 10.38093 7879 ft 253 kts 338°
2026-04-23 18:09 53.67804 10.37507 7579 ft 252 kts 352°
2026-04-23 18:09 53.69546 10.37277 7248 ft 251 kts 354°
2026-04-23 18:10 53.71289 10.37089 6881 ft 251 kts 355°
2026-04-23 18:10 53.73008 10.37535 6622 ft 253 kts 21°
2026-04-23 18:10 53.74355 10.39377 6550 ft 252 kts 48°
2026-04-23 18:10 53.75297 10.41817 6473 ft 244 kts 53°
2026-04-23 18:11 53.76246 10.44077 6383 ft 227 kts 35°
2026-04-23 18:11 53.77582 10.45156 6293 ft 206 kts
2026-04-23 18:11 53.78916 10.44736 6095 ft 193 kts 328°
2026-04-23 18:11 53.79926 10.43258 5720 ft 193 kts 315°
2026-04-23 18:12 53.80742 10.41450 5292 ft 197 kts 294°
2026-04-23 18:12 53.80854 10.39131 4935 ft 202 kts 267°
2026-04-23 18:12 53.80624 10.36797 4589 ft 200 kts 264°
2026-04-23 18:12 53.80324 10.34508 4189 ft 202 kts 253°
2026-04-23 18:13 53.79564 10.32473 3784 ft 206 kts 237°
2026-04-23 18:13 53.78691 10.30563 3391 ft 204 kts 237°
2026-04-23 18:13 53.77804 10.28704 3053 ft 201 kts 235°
2026-04-23 18:13 53.76908 10.26875 3001 ft 204 kts 235°
2026-04-23 18:14 53.75999 10.25037 2979 ft 202 kts 235°
2026-04-23 18:14 53.75098 10.23218 2976 ft 202 kts 234°
2026-04-23 18:14 53.74197 10.21401 2974 ft 202 kts 234°
2026-04-23 18:14 53.73296 10.19583 2923 ft 203 kts 235°
2026-04-23 18:15 53.72411 10.17797 2702 ft 191 kts 234°
2026-04-23 18:15 53.71596 10.16154 2470 ft 175 kts 235°
2026-04-23 18:15 53.70839 10.14623 2256 ft 167 kts 234°
2026-04-23 18:15 53.70098 10.13122 2043 ft 167 kts 234°
2026-04-23 18:16 53.69357 10.11623 1820 ft 166 kts 234°
2026-04-23 18:16 53.68627 10.10148 1589 ft 159 kts 234°
2026-04-23 18:16 53.67959 10.08797 1426 ft 139 kts 234°
2026-04-23 18:17 53.66814 10.06477 1058 ft 126 kts 234°
2026-04-23 18:17 53.66254 10.05342 892 ft 126 kts 234°
2026-04-23 18:17 53.65696 10.04210 725 ft 126 kts 234°
2026-04-23 18:17 53.65136 10.03076 565 ft 126 kts 233°
2026-04-23 18:18 53.64577 10.01933 388 ft 127 kts 233°
2026-04-23 18:18 53.64004 10.00789 198 ft 128 kts 233°
2026-04-23 18:18 53.63428 9.99623 59 ft 130 kts 232°
2026-04-23 18:18 53.62892 9.98537 41 ft 100 kts 229°
2026-04-23 18:19 53.62588 9.97918 40 ft 37 kts 229°
2026-04-23 18:19 53.62446 9.97823 42 ft 22 kts 135°
2026-04-23 18:19 53.62432 9.97907 44 ft 0 kts 87°
2026-04-23 18:21 53.62432 9.97908 44 ft 1 kts 87°
2026-04-23 18:21 53.62433 9.97927 45 ft 2 kts 86°
2026-04-23 18:21 53.62434 9.97958 46 ft 4 kts 82°
2026-04-23 18:21 53.62443 9.98023 45 ft 8 kts 68°
2026-04-23 18:22 53.62478 9.98121 45 ft 12 kts 48°
2026-04-23 18:22 53.62539 9.98240 45 ft 15 kts 50°
2026-04-23 18:22 53.62604 9.98372 45 ft 14 kts 50°
2026-04-23 18:22 53.62665 9.98501 45 ft 14 kts 51°
2026-04-23 18:23 53.62705 9.98582 44 ft 13 kts 50°
2026-04-23 18:23 53.62838 9.98852 45 ft 12 kts 50°
2026-04-23 18:24 53.62947 9.99069 46 ft 12 kts 49°
2026-04-23 18:24 53.62998 9.99175 42 ft 11 kts 51°
2026-04-23 18:24 53.63047 9.99278 46 ft 11 kts 51°
2026-04-23 18:25 53.63080 9.99354 46 ft 0 kts 57°
2026-04-23 18:25 53.63086 9.99370 46 ft 4 kts 57°
2026-04-23 18:26 53.63111 9.99432 44 ft 9 kts 55°
2026-04-23 18:26 53.63157 9.99542 43 ft 13 kts 54°
2026-04-23 18:26 53.63216 9.99659 47 ft 13 kts 57°
2026-04-23 18:26 53.63197 9.99784 47 ft 13 kts 151°
2026-04-23 18:27 53.63120 9.99847 47 ft 12 kts 154°
2026-04-23 18:27 53.63046 9.99913 45 ft 12 kts 154°
2026-04-23 18:27 53.62996 9.99957 47 ft 0 kts 152°
2026-04-23 18:28 53.62980 9.99971 47 ft 6 kts 152°
2026-04-23 18:28 53.62920 10.00023 46 ft 13 kts 153°
2026-04-23 18:28 53.62822 10.00093 47 ft 16 kts 144°
2026-04-23 18:29 53.62828 10.00166 47 ft 6 kts 57°
2026-04-23 18:29 53.62842 10.00211 47 ft 0 kts 62°